Showing default

MIDAS 6 (FTV 1169), 574

Orbit data source: Space-Track

MIDAS 6 (FTV 1169), 574 is a payload satellite owned by USAF SSD (US) in LEO that was launched on Thu, 09 May 1963 UTC via an ATLAS AGENA B launch vehicle from the Air Force Western Test Range (AFWTR). Payload-class satellites include a variety of spacecraft equipped with specific instruments for various scientific and technological missions. These include communications satellites like Starlink; space stations such as the ISS; scientific satellites like the Hubble; Earth observation satellites from companies like Planet Labs, Umbra, and HawkEye 360; GPS; miniature CubeSats for education and research; and military/defense satellites.

Loading next visibility...
Identifier
574, 1963-014A
Orbit
LEO
Country
Flag of USUS
Related business
Manufacturer
LMSC
Mission
Spacecraft
Bus & Motor
MIDAS, Unknown motor
Mass
~1,540 kg wet, ~840 kg dry
Launch date (UTC)
1963-05-09 (62 years ago)
Launch vehicle
ATLAS AGENA B
Launch site
Air Force Western Test Range (AFWTR)
Object type
Payload
Rocket body
Debris
Shape & HBR
Unknown
Radar Cross Section
Large (>1 m²)

Expand to show TLE details & history
Last TLE update: 17 hours ago

TLE from 17 hours ago
0 MIDAS 6 (FTV 1169)
1   574U 63014A   25304.75602134 -.00000015  00000-0 -85713-2 0  9996
2   574  87.3465 217.3521 0031363 343.6114  16.3725  8.65276366198023
Epoch: 2025-10-31T18:08Z
TLE epoch observation values (Epoch: 2025-10-31T18:08:40.243Z)
Latitude
Longitude
-95.11147°
Altitude
3,616.147 km
Speed
6.325 km/s
True Right ascension
14h 29m 24s
True Declination
0° 00' 00"
Sunlit
Object was in daylight at epoch
Visualization orbit readout
Latitude
Unknown
Longitude
Unknown
Altitude
Unknown
Speed
Unknown
Apparent Right ascension
Unknown
Apparent Declination
Unknown
Sunlit
N/A
Visualization observer readout
Local Sidereal Time
06:31:43
Azimuth
Unknown
Elevation
Unknown
Doppler factor
Unknown
Orbital elements
Apogee altitude
3,673.363 km
Perigee altitude
3,610.512 km
Semi-major axis
10,020.075 km
Eccentricity
0.00314
Inclination
87.3465°
RAAN
217.3521°
Arg. of periapsis
343.6114°
True anomaly
16.47419°
Mean anomaly
16.3725°
Eccentric anomaly
16.42331°
Mean motion
2.1639 °/min
Orbital period
166.37 mins
BSTAR
-0.0085713
Loading maneuver chart data...
Computing Atmospheric mass density...

Documentation

Showing up to 5 results
|